AMX171 MMTJ-MMMX

Flight info

Callsign AMX171
Flight time 2h 40m
Altitude 39000
Route TUMAP2B TUMAP DCT NOTOT DCT TAVLO/N0474F410 DCT DGO DCT XOTOL DCT DARAN DARAN3A
Aircraft B772/H-SDE2E3FGHIJ5LORVWXY/LB1D1

Departure

Time 2026-04-21 16:16
Airport General Abelardo L. Rodriguez International Airport (MMTJ)

Arrival

Time 2026-04-21 18:57
Airport Mexico City Benito Juárez International Airport (MMMX)
Time Latitude Longitude Altitude Speed Heading
2026-04-21 16:00 32.54428 -116.97424 473 ft 0 kts 346°
2026-04-21 16:04 32.54422 -116.97423 473 ft 2 kts 341°
2026-04-21 16:04 32.54414 -116.97415 472 ft 1 kts 282°
2026-04-21 16:04 32.54411 -116.97399 472 ft 2 kts 329°
2026-04-21 16:05 32.54389 -116.97406 472 ft 2 kts 357°
2026-04-21 16:05 32.54378 -116.97396 472 ft 1 kts 263°
2026-04-21 16:05 32.54385 -116.97378 472 ft 2 kts 263°
2026-04-21 16:05 32.54377 -116.97350 472 ft 2 kts 246°
2026-04-21 16:06 32.54391 -116.97340 472 ft 2 kts 194°
2026-04-21 16:06 32.54403 -116.97323 472 ft 2 kts 227°
2026-04-21 16:06 32.54416 -116.97319 473 ft 1 kts 159°
2026-04-21 16:06 32.54428 -116.97320 473 ft 2 kts 221°
2026-04-21 16:07 32.54435 -116.97311 473 ft 0 kts 230°
2026-04-21 16:10 32.54432 -116.97315 473 ft 4 kts 230°
2026-04-21 16:11 32.54375 -116.97385 472 ft 18 kts 223°
2026-04-21 16:11 32.54347 -116.97543 472 ft 19 kts 276°
2026-04-21 16:11 32.54366 -116.97697 475 ft 22 kts 279°
2026-04-21 16:11 32.54392 -116.97927 481 ft 21 kts 281°
2026-04-21 16:12 32.54419 -116.98000 484 ft 11 kts 314°
2026-04-21 16:12 32.54442 -116.97977 483 ft 5 kts 150°
2026-04-21 16:12 32.54424 -116.97958 482 ft 9 kts 124°
2026-04-21 16:12 32.54388 -116.97842 477 ft 26 kts 103°
2026-04-21 16:13 32.54347 -116.97554 472 ft 37 kts 99°
2026-04-21 16:13 32.54309 -116.97260 470 ft 35 kts 97°
2026-04-21 16:13 32.54274 -116.96980 471 ft 35 kts 99°
2026-04-21 16:13 32.54234 -116.96686 476 ft 36 kts 98°
2026-04-21 16:14 32.54192 -116.96389 483 ft 36 kts 99°
2026-04-21 16:14 32.54153 -116.96095 487 ft 36 kts 96°
2026-04-21 16:14 32.54119 -116.95787 485 ft 38 kts 102°
2026-04-21 16:14 32.54073 -116.95495 476 ft 19 kts 106°
2026-04-21 16:15 32.54002 -116.95474 474 ft 3 kts 169°
2026-04-21 16:15 32.53984 -116.95471 474 ft 4 kts 173°
2026-04-21 16:15 32.53928 -116.95510 473 ft 14 kts 240°
2026-04-21 16:15 32.53923 -116.95527 473 ft 0 kts 258°
2026-04-21 16:16 32.53928 -116.95703 477 ft 49 kts 274°
2026-04-21 16:16 32.54013 -116.96314 484 ft 106 kts 278°
2026-04-21 16:16 32.54179 -116.97501 484 ft 179 kts 280°
2026-04-21 16:16 32.54390 -116.98875 1581 ft 170 kts 280°
2026-04-21 16:17 32.54610 -117.00413 2031 ft 215 kts 279°
2026-04-21 16:17 32.54871 -117.02405 2123 ft 275 kts 278°
2026-04-21 16:17 32.55135 -117.04627 2110 ft 267 kts 278°
2026-04-21 16:17 32.55364 -117.06771 2107 ft 256 kts 277°
2026-04-21 16:18 32.55561 -117.08870 2132 ft 255 kts 276°
2026-04-21 16:18 32.55727 -117.10931 2540 ft 258 kts 275°
2026-04-21 16:18 32.55870 -117.13063 3461 ft 260 kts 274°
2026-04-21 16:18 32.55975 -117.15161 4491 ft 257 kts 268°
2026-04-21 16:19 32.55476 -117.17145 5324 ft 260 kts 236°
2026-04-21 16:19 32.54119 -117.18499 6252 ft 262 kts 205°
2026-04-21 16:19 32.52330 -117.18792 7188 ft 266 kts 174°
2026-04-21 16:19 32.50627 -117.17959 8008 ft 275 kts 146°
2026-04-21 16:20 32.49394 -117.16191 8680 ft 290 kts 118°
2026-04-21 16:20 32.48737 -117.13903 9444 ft 296 kts 110°
2026-04-21 16:20 32.48187 -117.11556 10236 ft 300 kts 109°
2026-04-21 16:20 32.47668 -117.09098 10645 ft 319 kts 107°
2026-04-21 16:21 32.47165 -117.06460 10982 ft 339 kts 105°
2026-04-21 16:21 32.46682 -117.03637 11271 ft 360 kts 104°
2026-04-21 16:21 32.46229 -117.00668 11573 ft 380 kts 103°
2026-04-21 16:21 32.45804 -116.97500 12017 ft 395 kts 101°
2026-04-21 16:22 32.45381 -116.94300 12763 ft 396 kts 107°
2026-04-21 16:22 32.44373 -116.91309 13482 ft 393 kts 122°
2026-04-21 16:22 32.43021 -116.88514 14161 ft 398 kts 125°
2026-04-21 16:22 32.41512 -116.85720 14851 ft 401 kts 128°
2026-04-21 16:23 32.39862 -116.83077 15558 ft 404 kts 131°
2026-04-21 16:23 32.38160 -116.80426 16205 ft 410 kts 131°
2026-04-21 16:23 32.36346 -116.77831 16860 ft 413 kts 135°
2026-04-21 16:23 32.34457 -116.75272 17526 ft 417 kts 135°
2026-04-21 16:24 32.32545 -116.72691 18136 ft 422 kts 135°
2026-04-21 16:24 32.30584 -116.70045 18802 ft 426 kts 135°
2026-04-21 16:24 32.28643 -116.67427 19424 ft 431 kts 135°
2026-04-21 16:24 32.26661 -116.64756 20066 ft 435 kts 135°
2026-04-21 16:25 32.24656 -116.62056 20657 ft 440 kts 135°
2026-04-21 16:25 32.22607 -116.59300 21270 ft 445 kts 135°
2026-04-21 16:25 32.20573 -116.56564 21842 ft 449 kts 135°
2026-04-21 16:25 32.18508 -116.53790 22413 ft 454 kts 135°
2026-04-21 16:26 32.16430 -116.51000 22985 ft 458 kts 135°
2026-04-21 16:26 32.14311 -116.48157 23572 ft 462 kts 135°
2026-04-21 16:26 32.12170 -116.45285 24109 ft 467 kts 135°
2026-04-21 16:26 32.10032 -116.42420 24641 ft 472 kts 135°
2026-04-21 16:27 32.07845 -116.39493 25184 ft 476 kts 135°
2026-04-21 16:27 32.05670 -116.36582 25726 ft 480 kts 135°
2026-04-21 16:27 32.03449 -116.33613 26265 ft 483 kts 135°
2026-04-21 16:27 32.01224 -116.30641 26688 ft 489 kts 135°
2026-04-21 16:28 31.98974 -116.27638 27168 ft 493 kts 135°
2026-04-21 16:28 31.96704 -116.24609 27644 ft 497 kts 135°
2026-04-21 16:28 31.94386 -116.21519 28121 ft 501 kts 135°
2026-04-21 16:28 31.92089 -116.18459 28594 ft 504 kts 135°
2026-04-21 16:29 31.90546 -116.16406 28889 ft 507 kts 135°
2026-04-21 16:29 31.87419 -116.12246 29531 ft 511 kts 135°
2026-04-21 16:29 31.85084 -116.09141 30208 ft 508 kts 135°
2026-04-21 16:29 31.82729 -116.06013 30790 ft 508 kts 135°
2026-04-21 16:30 31.80400 -116.02922 31223 ft 510 kts 135°
2026-04-21 16:30 31.78033 -115.99783 31590 ft 514 kts 135°
2026-04-21 16:30 31.75671 -115.96653 32103 ft 514 kts 135°
2026-04-21 16:30 31.73451 -115.93373 32533 ft 519 kts 128°
2026-04-21 16:31 31.71404 -115.89841 32999 ft 520 kts 127°
2026-04-21 16:31 31.69411 -115.86344 33476 ft 521 kts 127°
2026-04-21 16:31 31.67383 -115.82789 33990 ft 521 kts 126°
2026-04-21 16:31 31.65370 -115.79263 34561 ft 520 kts 126°
2026-04-21 16:32 31.63324 -115.75688 35256 ft 516 kts 126°
2026-04-21 16:32 31.61320 -115.72192 35837 ft 514 kts 126°
2026-04-21 16:32 31.59316 -115.68699 36370 ft 512 kts 126°
2026-04-21 16:32 31.57284 -115.65162 36883 ft 511 kts 126°
2026-04-21 16:33 31.55283 -115.61684 37293 ft 511 kts 126°
2026-04-21 16:33 31.53282 -115.58209 37683 ft 510 kts 126°
2026-04-21 16:33 31.51290 -115.54753 38029 ft 510 kts 126°
2026-04-21 16:33 31.49299 -115.51302 38303 ft 511 kts 126°
2026-04-21 16:34 31.47304 -115.47849 38650 ft 510 kts 126°
2026-04-21 16:34 31.45327 -115.44428 38936 ft 510 kts 126°
2026-04-21 16:34 31.43327 -115.40972 39093 ft 510 kts 125°
2026-04-21 16:35 31.39372 -115.34145 39076 ft 511 kts 126°
2026-04-21 16:35 31.35378 -115.27264 39050 ft 511 kts 126°
2026-04-21 16:36 31.31386 -115.20399 39022 ft 510 kts 126°
2026-04-21 16:36 31.27401 -115.13557 39030 ft 511 kts 126°
2026-04-21 16:37 31.23400 -115.06700 39002 ft 511 kts 126°
2026-04-21 16:37 31.19419 -114.99890 38996 ft 512 kts 126°
2026-04-21 16:38 31.15387 -114.93005 39000 ft 511 kts 126°
2026-04-21 16:38 31.11389 -114.86189 38993 ft 511 kts 126°
2026-04-21 16:39 31.07373 -114.79355 38984 ft 509 kts 126°
2026-04-21 16:39 31.03372 -114.72557 38971 ft 510 kts 126°
2026-04-21 16:40 30.99373 -114.65777 38971 ft 509 kts 126°
2026-04-21 16:40 30.95388 -114.59029 38971 ft 509 kts 126°
2026-04-21 16:41 30.92031 -114.53356 38975 ft 509 kts 126°
2026-04-21 16:41 30.87345 -114.45447 38970 ft 507 kts 126°
2026-04-21 16:42 30.83317 -114.38664 38977 ft 508 kts 126°
2026-04-21 16:42 30.79325 -114.31950 38967 ft 507 kts 126°
2026-04-21 16:43 30.75314 -114.25219 38969 ft 507 kts 126°
2026-04-21 16:43 30.71287 -114.18471 38970 ft 508 kts 126°
2026-04-21 16:44 30.67249 -114.11716 38968 ft 507 kts 126°
2026-04-21 16:44 30.63216 -114.04981 38966 ft 507 kts 126°
2026-04-21 16:45 30.59199 -113.98283 38964 ft 507 kts 126°
2026-04-21 16:45 30.55168 -113.91574 38965 ft 507 kts 126°
2026-04-21 16:46 30.51132 -113.84868 38961 ft 506 kts 126°
2026-04-21 16:46 30.47115 -113.78206 38969 ft 507 kts 126°
2026-04-21 16:47 30.43065 -113.71499 38966 ft 507 kts 126°
2026-04-21 16:47 30.39017 -113.64806 38973 ft 507 kts 126°
2026-04-21 16:48 30.34994 -113.58167 38969 ft 507 kts 126°
2026-04-21 16:48 30.30927 -113.51464 38977 ft 507 kts 126°
2026-04-21 16:49 30.26883 -113.44812 38978 ft 509 kts 126°
2026-04-21 16:49 30.22823 -113.38145 38983 ft 508 kts 126°
2026-04-21 16:50 30.18760 -113.31484 38979 ft 508 kts 127°
2026-04-21 16:50 30.14670 -113.24789 38994 ft 508 kts 127°
2026-04-21 16:51 30.10596 -113.18130 38995 ft 508 kts 127°
2026-04-21 16:51 30.06535 -113.11505 39000 ft 508 kts 127°
2026-04-21 16:52 30.02436 -113.04829 38992 ft 508 kts 127°
2026-04-21 16:52 29.99026 -112.99284 38990 ft 507 kts 127°
2026-04-21 16:53 29.94271 -112.91562 38979 ft 508 kts 127°
2026-04-21 16:53 29.90165 -112.84907 38982 ft 509 kts 127°
2026-04-21 16:54 29.86039 -112.78231 38982 ft 509 kts 127°
2026-04-21 16:54 29.81951 -112.71628 38987 ft 511 kts 127°
2026-04-21 16:55 29.77806 -112.64943 38994 ft 510 kts 127°
2026-04-21 16:55 29.73690 -112.58315 39001 ft 511 kts 127°
2026-04-21 16:56 29.69581 -112.51708 39016 ft 509 kts 127°
2026-04-21 16:56 29.65425 -112.45039 39027 ft 511 kts 128°
2026-04-21 16:57 29.61249 -112.38346 39016 ft 510 kts 128°
2026-04-21 16:57 29.57132 -112.31761 39019 ft 512 kts 128°
2026-04-21 16:58 29.52956 -112.25090 39034 ft 511 kts 128°
2026-04-21 16:58 29.48815 -112.18487 39038 ft 512 kts 128°
2026-04-21 16:59 29.44650 -112.11856 39034 ft 512 kts 128°
2026-04-21 16:59 29.40491 -112.05245 39040 ft 513 kts 129°
2026-04-21 17:00 29.36314 -111.98617 39033 ft 513 kts 129°
2026-04-21 17:00 29.32828 -111.93093 39042 ft 514 kts 129°
2026-04-21 17:01 29.27930 -111.85343 39032 ft 513 kts 129°
2026-04-21 17:01 29.23749 -111.78741 39033 ft 515 kts 129°
2026-04-21 17:02 29.19571 -111.72150 39026 ft 512 kts 129°
2026-04-21 17:02 29.15371 -111.65539 39038 ft 514 kts 129°
2026-04-21 17:03 29.11192 -111.58971 39032 ft 513 kts 129°
2026-04-21 17:03 29.06982 -111.52364 39035 ft 513 kts 129°
2026-04-21 17:04 29.02805 -111.45818 39033 ft 513 kts 129°
2026-04-21 17:04 28.98610 -111.39256 39035 ft 512 kts 129°
2026-04-21 17:05 28.94411 -111.32697 39026 ft 512 kts 130°
2026-04-21 17:05 28.90219 -111.26160 39028 ft 512 kts 130°
2026-04-21 17:06 28.85993 -111.19580 39029 ft 513 kts 130°
2026-04-21 17:06 28.81752 -111.12986 39030 ft 515 kts 130°
2026-04-21 17:07 28.78235 -111.07526 39029 ft 513 kts 130°
2026-04-21 17:07 28.73314 -110.99902 39041 ft 512 kts 130°
2026-04-21 17:08 28.69065 -110.93401 39050 ft 513 kts 130°
2026-04-21 17:08 28.64783 -110.86865 39057 ft 513 kts 130°
2026-04-21 17:09 28.58380 -110.77103 39056 ft 513 kts 130°
2026-04-21 17:09 28.54112 -110.70608 39058 ft 514 kts 131°
2026-04-21 17:10 28.49842 -110.64120 39057 ft 513 kts 130°
2026-04-21 17:10 28.45569 -110.57636 39055 ft 513 kts 131°
2026-04-21 17:11 28.41296 -110.51163 39051 ft 512 kts 131°
2026-04-21 17:11 28.37017 -110.44689 39049 ft 512 kts 131°
2026-04-21 17:12 28.32724 -110.38205 39049 ft 513 kts 131°
2026-04-21 17:12 28.28451 -110.31760 39039 ft 511 kts 131°
2026-04-21 17:13 28.24184 -110.25336 39046 ft 513 kts 131°
2026-04-21 17:13 28.19889 -110.18877 39049 ft 514 kts 131°
2026-04-21 17:14 28.15593 -110.12427 39039 ft 512 kts 131°
2026-04-21 17:14 28.11305 -110.05999 39036 ft 513 kts 132°
2026-04-21 17:15 28.06995 -109.99548 39033 ft 512 kts 132°
2026-04-21 17:15 28.02682 -109.93102 39036 ft 512 kts 132°
2026-04-21 17:16 27.98384 -109.86687 39040 ft 514 kts 132°
2026-04-21 17:16 27.94071 -109.80260 39040 ft 514 kts 132°
2026-04-21 17:17 27.89756 -109.73840 39048 ft 514 kts 132°
2026-04-21 17:17 27.85409 -109.67382 39063 ft 513 kts 132°
2026-04-21 17:18 27.81073 -109.60950 39084 ft 513 kts 132°
2026-04-21 17:18 27.76740 -109.54531 39102 ft 513 kts 132°
2026-04-21 17:19 27.72434 -109.48161 39117 ft 512 kts 132°
2026-04-21 17:19 27.68108 -109.41773 39109 ft 514 kts 132°
2026-04-21 17:20 27.63769 -109.35374 39097 ft 513 kts 132°
2026-04-21 17:20 27.59436 -109.28992 39077 ft 511 kts 133°
2026-04-21 17:21 27.55104 -109.22622 39070 ft 512 kts 133°
2026-04-21 17:21 27.50794 -109.16294 39102 ft 512 kts 133°
2026-04-21 17:22 27.46457 -109.09934 39116 ft 511 kts 133°
2026-04-21 17:22 27.42109 -109.03570 39130 ft 512 kts 133°
2026-04-21 17:23 27.37780 -108.97241 39131 ft 513 kts 133°
2026-04-21 17:23 27.33431 -108.90892 39123 ft 510 kts 133°
2026-04-21 17:24 27.29074 -108.84540 39114 ft 512 kts 133°
2026-04-21 17:24 27.24766 -108.78268 39120 ft 509 kts 133°
2026-04-21 17:25 27.20415 -108.71944 39133 ft 509 kts 133°
2026-04-21 17:25 27.16102 -108.65685 39134 ft 509 kts 133°
2026-04-21 17:26 27.11771 -108.59407 39132 ft 509 kts 133°
2026-04-21 17:26 27.07453 -108.53158 39133 ft 510 kts 133°
2026-04-21 17:27 27.03097 -108.46863 39119 ft 511 kts 133°
2026-04-21 17:27 26.98728 -108.40557 39126 ft 511 kts 133°
2026-04-21 17:28 26.94398 -108.34316 39121 ft 509 kts 134°
2026-04-21 17:28 26.90057 -108.28067 39108 ft 509 kts 133°
2026-04-21 17:29 26.85728 -108.21847 39131 ft 509 kts 133°
2026-04-21 17:29 26.81353 -108.15568 39170 ft 510 kts 133°
2026-04-21 17:30 26.76999 -108.09327 39216 ft 509 kts 133°
2026-04-21 17:30 26.72651 -108.03104 39264 ft 509 kts 133°
2026-04-21 17:31 26.68286 -107.96933 39282 ft 507 kts 134°
2026-04-21 17:31 26.63925 -107.90797 39291 ft 505 kts 134°
2026-04-21 17:32 26.59536 -107.84631 39304 ft 506 kts 134°
2026-04-21 17:32 26.55157 -107.78483 39294 ft 505 kts 134°
2026-04-21 17:33 26.50788 -107.72358 39325 ft 508 kts 134°
2026-04-21 17:33 26.46405 -107.66221 39322 ft 506 kts 134°
2026-04-21 17:34 26.42046 -107.60125 39329 ft 507 kts 134°
2026-04-21 17:34 26.37637 -107.53967 39329 ft 506 kts 134°
2026-04-21 17:35 26.33267 -107.47872 39363 ft 505 kts 134°
2026-04-21 17:35 26.28876 -107.41756 39383 ft 504 kts 134°
2026-04-21 17:36 26.24494 -107.35662 39400 ft 505 kts 134°
2026-04-21 17:36 26.20119 -107.29584 39397 ft 504 kts 135°
2026-04-21 17:37 26.15726 -107.23489 39402 ft 504 kts 135°
2026-04-21 17:37 26.11352 -107.17431 39420 ft 504 kts 135°
2026-04-21 17:38 26.06930 -107.11313 39421 ft 506 kts 135°
2026-04-21 17:38 26.02539 -107.05245 39449 ft 505 kts 134°
2026-04-21 17:39 25.98150 -106.99189 39483 ft 506 kts 135°
2026-04-21 17:39 25.93757 -106.93134 39486 ft 506 kts 135°
2026-04-21 17:40 25.89324 -106.87034 39480 ft 506 kts 135°
2026-04-21 17:40 25.84933 -106.81000 39474 ft 506 kts 135°
2026-04-21 17:41 25.80512 -106.74931 39473 ft 505 kts 135°
2026-04-21 17:41 25.76077 -106.68851 39472 ft 506 kts 135°
2026-04-21 17:42 25.71675 -106.62826 39462 ft 508 kts 135°
2026-04-21 17:42 25.67219 -106.56732 39472 ft 507 kts 135°
2026-04-21 17:43 25.62748 -106.50628 39480 ft 509 kts 135°
2026-04-21 17:43 25.58309 -106.44573 39490 ft 506 kts 135°
2026-04-21 17:44 25.53854 -106.38506 39498 ft 506 kts 135°
2026-04-21 17:44 25.49392 -106.32439 39492 ft 508 kts 135°
2026-04-21 17:45 25.44952 -106.26407 39497 ft 507 kts 135°
2026-04-21 17:45 25.40527 -106.20403 39510 ft 507 kts 135°
2026-04-21 17:46 25.36075 -106.14372 39519 ft 507 kts 135°
2026-04-21 17:46 25.31610 -106.08330 39527 ft 506 kts 135°
2026-04-21 17:47 25.27163 -106.02323 39535 ft 507 kts 135°
2026-04-21 17:47 25.22703 -105.96303 39537 ft 506 kts 135°
2026-04-21 17:48 25.18230 -105.90273 39536 ft 506 kts 135°
2026-04-21 17:48 25.13771 -105.84272 39528 ft 506 kts 135°
2026-04-21 17:49 25.09305 -105.78268 39534 ft 508 kts 135°
2026-04-21 17:49 25.04834 -105.72264 39538 ft 508 kts 135°
2026-04-21 17:50 25.00374 -105.66283 39527 ft 507 kts 135°
2026-04-21 17:50 24.95885 -105.60269 39520 ft 506 kts 135°
2026-04-21 17:51 24.91432 -105.54314 39524 ft 508 kts 135°
2026-04-21 17:51 24.86922 -105.48289 39516 ft 508 kts 135°
2026-04-21 17:52 24.82447 -105.42317 39518 ft 508 kts 135°
2026-04-21 17:52 24.77948 -105.36321 39508 ft 506 kts 135°
2026-04-21 17:53 24.73487 -105.30384 39489 ft 506 kts 135°
2026-04-21 17:53 24.68975 -105.24387 39485 ft 506 kts 135°
2026-04-21 17:54 24.64512 -105.18460 39486 ft 505 kts 135°
2026-04-21 17:54 24.60014 -105.12497 39502 ft 507 kts 135°
2026-04-21 17:55 24.55557 -105.06593 39515 ft 506 kts 135°
2026-04-21 17:55 24.51051 -105.00635 39533 ft 507 kts 135°
2026-04-21 17:56 24.46569 -104.94712 39534 ft 505 kts 135°
2026-04-21 17:56 24.42064 -104.88769 39522 ft 506 kts 135°
2026-04-21 17:57 24.37586 -104.82867 39522 ft 506 kts 135°
2026-04-21 17:57 24.33083 -104.76940 39512 ft 506 kts 135°
2026-04-21 17:58 24.28579 -104.71020 39483 ft 505 kts 135°
2026-04-21 17:58 24.24086 -104.65120 39473 ft 505 kts 135°
2026-04-21 17:59 24.19614 -104.59255 39400 ft 505 kts 135°
2026-04-21 17:59 24.15090 -104.53330 39358 ft 507 kts 135°
2026-04-21 18:00 24.10512 -104.47500 39353 ft 503 kts 137°
2026-04-21 18:00 24.05862 -104.41768 39403 ft 504 kts 136°
2026-04-21 18:01 24.01228 -104.36050 39426 ft 503 kts 137°
2026-04-21 18:01 23.96582 -104.30315 39423 ft 503 kts 137°
2026-04-21 18:02 23.91949 -104.24601 39449 ft 503 kts 137°
2026-04-21 18:02 23.87290 -104.18860 39449 ft 503 kts 137°
2026-04-21 18:03 23.82647 -104.13145 39442 ft 503 kts 137°
2026-04-21 18:03 23.77976 -104.07398 39445 ft 503 kts 137°
2026-04-21 18:04 23.73341 -104.01703 39446 ft 502 kts 137°
2026-04-21 18:04 23.68678 -103.95982 39459 ft 503 kts 137°
2026-04-21 18:05 23.64037 -103.90293 39475 ft 502 kts 136°
2026-04-21 18:05 23.59392 -103.84605 39482 ft 502 kts 137°
2026-04-21 18:06 23.54732 -103.78906 39492 ft 503 kts 136°
2026-04-21 18:06 23.50086 -103.73231 39491 ft 502 kts 136°
2026-04-21 18:07 23.45412 -103.67528 39497 ft 501 kts 136°
2026-04-21 18:07 23.40769 -103.61870 39508 ft 503 kts 136°
2026-04-21 18:08 23.36099 -103.56184 39516 ft 501 kts 136°
2026-04-21 18:08 23.31441 -103.50520 39523 ft 502 kts 136°
2026-04-21 18:09 23.26792 -103.44874 39520 ft 503 kts 136°
2026-04-21 18:09 23.22128 -103.39215 39524 ft 503 kts 136°
2026-04-21 18:10 23.17424 -103.33514 39522 ft 503 kts 136°
2026-04-21 18:10 23.12766 -103.27875 39525 ft 501 kts 136°
2026-04-21 18:11 23.08093 -103.22226 39530 ft 503 kts 136°
2026-04-21 18:11 23.03420 -103.16582 39543 ft 502 kts 136°
2026-04-21 18:12 22.98753 -103.10951 39559 ft 502 kts 136°
2026-04-21 18:12 22.94062 -103.05299 39557 ft 503 kts 136°
2026-04-21 18:13 22.89403 -102.99690 39557 ft 502 kts 136°
2026-04-21 18:13 22.84748 -102.94093 39546 ft 502 kts 136°
2026-04-21 18:14 22.77713 -102.85646 39537 ft 502 kts 135°
2026-04-21 18:15 22.73011 -102.80008 39534 ft 501 kts 135°
2026-04-21 18:15 22.68325 -102.74396 39534 ft 503 kts 135°
2026-04-21 18:16 22.63636 -102.68786 39529 ft 503 kts 135°
2026-04-21 18:16 22.58961 -102.63199 39524 ft 503 kts 135°
2026-04-21 18:17 22.54261 -102.57587 39512 ft 503 kts 135°
2026-04-21 18:17 22.49532 -102.51949 39514 ft 504 kts 135°
2026-04-21 18:18 22.44830 -102.46348 39513 ft 503 kts 135°
2026-04-21 18:18 22.40125 -102.40749 39510 ft 503 kts 135°
2026-04-21 18:19 22.35396 -102.35128 39498 ft 503 kts 135°
2026-04-21 18:19 22.30680 -102.29529 39475 ft 502 kts 135°
2026-04-21 18:20 22.25987 -102.23962 39457 ft 502 kts 135°
2026-04-21 18:20 22.21299 -102.18408 39453 ft 501 kts 135°
2026-04-21 18:21 22.16577 -102.12820 39457 ft 502 kts 135°
2026-04-21 18:21 22.11870 -102.07256 39463 ft 501 kts 135°
2026-04-21 18:22 22.07130 -102.01659 39464 ft 503 kts 136°
2026-04-21 18:22 22.02336 -101.96004 39456 ft 502 kts 135°
2026-04-21 18:23 21.97558 -101.90373 39470 ft 502 kts 135°
2026-04-21 18:23 21.92842 -101.84821 39479 ft 501 kts 135°
2026-04-21 18:24 21.88197 -101.79260 39480 ft 500 kts 134°
2026-04-21 18:24 21.83645 -101.73598 39477 ft 500 kts 134°
2026-04-21 18:25 21.79090 -101.67948 39486 ft 498 kts 134°
2026-04-21 18:25 21.74507 -101.62276 39493 ft 498 kts 134°
2026-04-21 18:26 21.69989 -101.56693 39491 ft 498 kts 134°
2026-04-21 18:26 21.65436 -101.51078 39487 ft 497 kts 134°
2026-04-21 18:27 21.60849 -101.45425 39488 ft 497 kts 134°
2026-04-21 18:27 21.56308 -101.39838 39489 ft 496 kts 134°
2026-04-21 18:28 21.51792 -101.34287 39487 ft 496 kts 134°
2026-04-21 18:28 21.47219 -101.28672 39480 ft 495 kts 134°
2026-04-21 18:29 21.42693 -101.23120 39490 ft 494 kts 134°
2026-04-21 18:29 21.38161 -101.17567 39496 ft 494 kts 134°
2026-04-21 18:30 21.33644 -101.12037 39499 ft 494 kts 134°
2026-04-21 18:30 21.29146 -101.06537 39489 ft 493 kts 134°
2026-04-21 18:31 21.24631 -101.01022 39476 ft 491 kts 134°
2026-04-21 18:31 21.20141 -100.95541 39459 ft 490 kts 134°
2026-04-21 18:32 21.15630 -100.90042 39461 ft 490 kts 134°
2026-04-21 18:32 21.11142 -100.84576 39462 ft 491 kts 134°
2026-04-21 18:33 21.06615 -100.79069 39452 ft 492 kts 134°
2026-04-21 18:33 21.02080 -100.73556 39448 ft 493 kts 134°
2026-04-21 18:34 20.97547 -100.68051 39457 ft 493 kts 134°
2026-04-21 18:34 20.93018 -100.62557 39461 ft 493 kts 134°
2026-04-21 18:35 20.89262 -100.58005 39466 ft 492 kts 134°
2026-04-21 18:35 20.83971 -100.51599 39471 ft 492 kts 134°
2026-04-21 18:36 20.79442 -100.46121 39475 ft 493 kts 134°
2026-04-21 18:36 20.74923 -100.40659 39299 ft 484 kts 134°
2026-04-21 18:36 20.72682 -100.37952 38546 ft 482 kts 134°
2026-04-21 18:37 20.70459 -100.35272 37392 ft 489 kts 134°
2026-04-21 18:37 20.68195 -100.32543 36186 ft 496 kts 134°
2026-04-21 18:37 20.65908 -100.29786 35165 ft 499 kts 134°
2026-04-21 18:37 20.63598 -100.27003 34300 ft 498 kts 134°
2026-04-21 18:38 20.61316 -100.24253 33491 ft 496 kts 134°
2026-04-21 18:38 20.59023 -100.21492 32664 ft 495 kts 133°
2026-04-21 18:38 20.56772 -100.18787 32296 ft 484 kts 134°
2026-04-21 18:38 20.54378 -100.16328 32162 ft 466 kts 140°
2026-04-21 18:39 20.51993 -100.14095 32003 ft 453 kts 141°
2026-04-21 18:39 20.49616 -100.11884 31247 ft 448 kts 141°
2026-04-21 18:39 20.47284 -100.09715 30497 ft 451 kts 141°
2026-04-21 18:39 20.44941 -100.07539 29943 ft 448 kts 140°
2026-04-21 18:40 20.42595 -100.05360 29535 ft 442 kts 140°
2026-04-21 18:40 20.40311 -100.03239 29271 ft 432 kts 140°
2026-04-21 18:40 20.38806 -100.01840 29097 ft 427 kts 140°
2026-04-21 18:40 20.35833 -99.99082 28613 ft 419 kts 140°
2026-04-21 18:41 20.33621 -99.97033 28244 ft 436 kts 140°
2026-04-21 18:41 20.31267 -99.94852 27829 ft 450 kts 140°
2026-04-21 18:41 20.28921 -99.92680 27326 ft 448 kts 140°
2026-04-21 18:41 20.26590 -99.90521 26824 ft 445 kts 140°
2026-04-21 18:42 20.24245 -99.88350 26316 ft 441 kts 140°
2026-04-21 18:42 20.21955 -99.86231 25820 ft 437 kts 140°
2026-04-21 18:42 20.19674 -99.84121 25322 ft 434 kts 139°
2026-04-21 18:42 20.17396 -99.82014 24821 ft 430 kts 139°
2026-04-21 18:43 20.15166 -99.79954 24328 ft 427 kts 139°
2026-04-21 18:43 20.12920 -99.77879 23820 ft 423 kts 139°
2026-04-21 18:43 20.10711 -99.75839 23308 ft 420 kts 139°
2026-04-21 18:43 20.08504 -99.73801 22788 ft 416 kts 139°
2026-04-21 18:44 20.06337 -99.71802 22280 ft 413 kts 139°
2026-04-21 18:44 20.04185 -99.69817 21784 ft 409 kts 139°
2026-04-21 18:44 20.02044 -99.67844 21289 ft 406 kts 139°
2026-04-21 18:44 19.99932 -99.65897 20787 ft 403 kts 139°
2026-04-21 18:45 19.97805 -99.63937 20298 ft 399 kts 139°
2026-04-21 18:45 19.95718 -99.62015 19811 ft 396 kts 139°
2026-04-21 18:45 19.93651 -99.60113 19325 ft 393 kts 139°
2026-04-21 18:45 19.91601 -99.58226 18840 ft 390 kts 139°
2026-04-21 18:46 19.89558 -99.56347 18360 ft 388 kts 139°
2026-04-21 18:46 19.87526 -99.54478 17873 ft 385 kts 139°
2026-04-21 18:46 19.85510 -99.52624 17387 ft 382 kts 139°
2026-04-21 18:46 19.83509 -99.50785 16911 ft 380 kts 138°
2026-04-21 18:47 19.81507 -99.48946 16443 ft 377 kts 138°
2026-04-21 18:47 19.79527 -99.47128 15976 ft 375 kts 138°
2026-04-21 18:47 19.77572 -99.45333 15514 ft 372 kts 138°
2026-04-21 18:47 19.75619 -99.43541 15042 ft 370 kts 138°
2026-04-21 18:48 19.73674 -99.41756 14652 ft 365 kts 138°
2026-04-21 18:48 19.71789 -99.40028 14545 ft 351 kts 138°
2026-04-21 18:48 19.69993 -99.38382 14545 ft 336 kts 137°
2026-04-21 18:48 19.68264 -99.36799 14525 ft 321 kts 137°
2026-04-21 18:49 19.66611 -99.35284 14523 ft 306 kts 138°
2026-04-21 18:49 19.65030 -99.33836 14524 ft 292 kts 138°
2026-04-21 18:49 19.64011 -99.32903 14519 ft 283 kts 138°
2026-04-21 18:49 19.62095 -99.31149 14499 ft 265 kts 138°
2026-04-21 18:50 19.60713 -99.29883 14497 ft 254 kts 138°
2026-04-21 18:50 19.59378 -99.28664 14503 ft 257 kts 140°
2026-04-21 18:50 19.57921 -99.27528 14492 ft 257 kts 143°
2026-04-21 18:50 19.56484 -99.26447 14402 ft 253 kts 143°
2026-04-21 18:51 19.55073 -99.25364 14136 ft 248 kts 142°
2026-04-21 18:51 19.53668 -99.24283 13542 ft 255 kts 145°
2026-04-21 18:51 19.52000 -99.23630 13125 ft 254 kts 170°
2026-04-21 18:51 19.50258 -99.23487 12714 ft 252 kts 177°
2026-04-21 18:52 19.48507 -99.23449 12293 ft 252 kts 178°
2026-04-21 18:52 19.46765 -99.23422 11932 ft 248 kts 178°
2026-04-21 18:52 19.45053 -99.23395 11711 ft 238 kts 179°
2026-04-21 18:52 19.43436 -99.23367 11672 ft 221 kts 179°
2026-04-21 18:53 19.41971 -99.23342 11634 ft 198 kts 178°
2026-04-21 18:53 19.40669 -99.23309 11431 ft 183 kts 174°
2026-04-21 18:53 19.39441 -99.22990 10976 ft 182 kts 155°
2026-04-21 18:53 19.38377 -99.22259 10482 ft 184 kts 136°
2026-04-21 18:54 19.37620 -99.21206 9975 ft 181 kts 116°
2026-04-21 18:54 19.37244 -99.19961 9478 ft 179 kts 98°
2026-04-21 18:54 19.37272 -99.18642 8964 ft 178 kts 79°
2026-04-21 18:54 19.37694 -99.17448 8564 ft 170 kts 60°
2026-04-21 18:55 19.38096 -99.16753 8517 ft 170 kts 58°
2026-04-21 18:55 19.38929 -99.15309 8486 ft 170 kts 58°
2026-04-21 18:55 19.39545 -99.14214 8458 ft 172 kts 56°
2026-04-21 18:55 19.40185 -99.13141 8390 ft 174 kts 56°
2026-04-21 18:56 19.40842 -99.12072 8243 ft 171 kts 57°
2026-04-21 18:56 19.41448 -99.10967 8071 ft 176 kts 62°
2026-04-21 18:56 19.42033 -99.09840 7747 ft 176 kts 61°
2026-04-21 18:56 19.42624 -99.08746 7484 ft 169 kts 60°
2026-04-21 18:57 19.43213 -99.07671 7357 ft 158 kts 59°
2026-04-21 18:57 19.43641 -99.06916 7348 ft 44 kts 57°
2026-04-21 18:57 19.43744 -99.06740 7348 ft 0 kts 60°
2026-04-21 18:58 19.43744 -99.06739 7348 ft 0 kts 60°
2026-04-21 18:59 19.43761 -99.06702 7346 ft 13 kts 67°
2026-04-21 18:59 19.43759 -99.06615 7344 ft 12 kts 134°
2026-04-21 18:59 19.43648 -99.06637 7345 ft 21 kts 208°
2026-04-21 18:59 19.43498 -99.06728 7345 ft 29 kts 211°
2026-04-21 19:00 19.43311 -99.06860 7346 ft 28 kts 230°
2026-04-21 19:00 19.43209 -99.07071 7346 ft 36 kts 248°
2026-04-21 19:00 19.43087 -99.07301 7347 ft 32 kts 243°
2026-04-21 19:00 19.43000 -99.07471 7350 ft 22 kts 240°
2026-04-21 19:01 19.42933 -99.07596 7352 ft 16 kts 241°
2026-04-21 19:01 19.42886 -99.07685 7351 ft 11 kts 240°
2026-04-21 19:01 19.42839 -99.07734 7350 ft 7 kts 180°
2026-04-21 19:01 19.42798 -99.07732 7350 ft 5 kts 183°
2026-04-21 19:02 19.42753 -99.07752 7350 ft 8 kts 218°
2026-04-21 19:02 19.42702 -99.07793 7351 ft 9 kts 204°
2026-04-21 19:02 19.42642 -99.07815 7351 ft 8 kts 197°
2026-04-21 19:02 19.42590 -99.07832 7351 ft 8 kts 199°
2026-04-21 19:03 19.42532 -99.07854 7351 ft 6 kts 197°
2026-04-21 19:03 19.42498 -99.07864 7351 ft 0 kts 196°
2026-04-21 19:03 19.42492 -99.07866 7351 ft 0 kts 196°